Location: ???? ?????
(30.0052°N, 31.2891°E)
Time: 13:20:24
(UTC+00:00)

ACS3 Solar Sail - Visible Passes

Search period start: 19 September 2024 00:00
Search period end: 29 September 2024 00:00
Orbit: 970 x 1035 km, 97.4° (Epoch: 18 September)

Date Brightness Start Highest point End Pass type
(mag) Time Alt. Az. Time Alt. Az. Time Alt. Az.
19 Sep 1.9 18:15:12 74° NNE 18:15:12 74° NNE 18:21:05 10° N visible
19 Sep 4.6 20:00:27 11° WNW 20:00:27 11° WNW 20:01:00 10° WNW visible
20 Sep 3.1 17:03:22 20° ENE 17:04:05 20° ENE 17:08:32 10° NNE visible
20 Sep 2.7 18:48:37 48° WNW 18:48:37 48° WNW 18:53:49 10° NNW visible
21 Sep 2.4 17:36:44 39° ENE 17:36:44 39° ENE 17:42:29 10° N visible
21 Sep 3.7 19:21:58 24° WNW 19:21:58 24° WNW 19:25:50 10° NW visible
22 Sep 1.9 18:10:03 67° NNE 18:10:03 67° NNE 18:15:41 10° N visible
22 Sep 4.5 19:55:17 11° WNW 19:55:17 11° WNW 19:56:06 10° WNW visible
23 Sep 3.2 16:58:06 19° ENE 16:58:37 19° ENE 17:02:52 10° NNE visible
23 Sep 2.7 18:43:20 48° WNW 18:43:20 48° WNW 18:48:19 10° NNW visible
24 Sep 2.5 17:31:20 36° ENE 17:31:20 36° ENE 17:36:46 10° N visible
24 Sep 3.7 19:16:33 25° WNW 19:16:33 25° WNW 19:20:18 10° NW visible
25 Sep 2.0 18:04:31 61° NNE 18:04:31 61° NNE 18:09:53 10° N visible
25 Sep 4.5 19:49:44 12° WNW 19:49:44 12° WNW 19:50:45 10° WNW visible
26 Sep 3.2 16:52:26 18° ENE 16:52:45 18° ENE 16:56:46 10° NNE visible
26 Sep 2.7 18:37:40 48° NW 18:37:40 48° NW 18:42:26 10° NNW visible
27 Sep 2.6 17:25:33 34° ENE 17:25:33 34° ENE 17:30:39 10° N visible
27 Sep 3.7 19:10:46 26° WNW 19:10:46 26° WNW 19:14:21 10° NW visible
28 Sep 2.1 17:58:36 55° NNE 17:58:36 55° NNE 18:03:42 10° N visible
28 Sep 4.5 19:43:49 12° WNW 19:43:49 12° WNW 19:44:58 10° WNW visible
